Time,TemperatureF,DewpointF,PressureIn,WindDirection,WindDirectionDegrees,WindSpeedMPH,WindSpeedGustMPH,Humidity,HourlyPrecipIn,Conditions,Clouds,dailyrainin,SoftwareType,DateUTC
2013-04-05 00:04:00,41.8,14.0,29.97,SSE,148,1.0,-999.0,32,-99.99,,,0.00,weatherlink.com 1.10,2013-04-05 06:04:00,
2013-04-05 00:19:00,40.8,14.0,29.95,SSE,164,0.0,-999.0,34,-99.99,,,0.00,weatherlink.com 1.10,2013-04-05 06:19:00,
2013-04-05 00:34:00,39.9,15.0,29.95,SSE,168,0.0,-999.0,36,-99.99,,,0.00,weatherlink.com 1.10,2013-04-05 06:34:00,
2013-04-05 00:49:00,40.1,16.0,29.95,SSE,167,0.0,-999.0,37,-99.99,,,0.00,weatherlink.com 1.10,2013-04-05 06:49:00,
2013-04-05 01:04:00,39.9,15.0,29.95,South,175,0.0,-999.0,37,-99.99,,,0.00,weatherlink.com 1.10,2013-04-05 07:04:00,
2013-04-05 01:19:00,39.3,15.0,29.93,South,184,0.0,-999.0,37,-99.99,,,0.00,weatherlink.com 1.10,2013-04-05 07:19:00,
2013-04-05 01:35:00,39.8,15.0,29.93,South,178,3.0,-999.0,36,-99.99,,,0.00,weatherlink.com 1.10,2013-04-05 07:35:00,
2013-04-05 01:50:00,38.9,15.0,29.92,SW,234,0.0,-999.0,38,-99.99,,,0.00,weatherlink.com 1.10,2013-04-05 07:50:00,
2013-04-05 02:05:00,37.3,15.0,29.93,SSE,161,1.0,-999.0,41,-99.99,,,0.00,weatherlink.com 1.10,2013-04-05 08:05:00,
2013-04-05 02:20:00,36.9,16.0,29.93,South,172,0.0,-999.0,42,-99.99,,,0.00,weatherlink.com 1.10,2013-04-05 08:20:00,
2013-04-05 02:35:00,35.8,16.0,29.94,South,173,0.0,-999.0,44,-99.99,,,0.00,weatherlink.com 1.10,2013-04-05 08:35:00,
2013-04-05 02:50:00,36.3,15.0,29.93,South,172,0.0,-999.0,42,-99.99,,,0.00,weatherlink.com 1.10,2013-04-05 08:50:00,
2013-04-05 03:05:00,36.0,15.0,29.93,South,172,0.0,-999.0,43,-99.99,,,0.00,weatherlink.com 1.10,2013-04-05 09:05:00,
2013-04-05 03:20:00,35.3,15.0,29.91,South,172,0.0,-999.0,43,-99.99,,,0.00,weatherlink.com 1.10,2013-04-05 09:20:00,
2013-04-05 03:35:00,35.0,14.0,29.91,South,172,0.0,-999.0,42,-99.99,,,0.00,weatherlink.com 1.10,2013-04-05 09:35:00,
2013-04-05 03:50:00,34.7,14.0,29.91,South,172,0.0,-999.0,43,-99.99,,,0.00,weatherlink.com 1.10,2013-04-05 09:50:00,
2013-04-05 04:05:00,33.5,15.0,29.91,South,172,0.0,-999.0,47,-99.99,,,0.00,weatherlink.com 1.10,2013-04-05 10:05:00,
2013-04-05 04:20:00,31.6,16.0,29.96,South,172,0.0,-999.0,53,-99.99,,,0.00,weatherlink.com 1.10,2013-04-05 10:20:00,
2013-04-05 04:35:00,31.8,14.0,29.96,South,172,0.0,-999.0,49,-99.99,,,0.00,weatherlink.com 1.10,2013-04-05 10:35:00,
2013-04-05 04:50:00,31.8,15.0,29.96,South,172,0.0,-999.0,50,-99.99,,,0.00,weatherlink.com 1.10,2013-04-05 10:50:00,
2013-04-05 05:05:00,31.0,14.0,29.96,South,172,0.0,-999.0,50,-99.99,,,0.00,weatherlink.com 1.10,2013-04-05 11:05:00,
2013-04-05 05:20:00,30.7,15.0,29.98,South,172,0.0,-999.0,53,-99.99,,,0.00,weatherlink.com 1.10,2013-04-05 11:20:00,
2013-04-05 05:35:00,30.7,15.0,29.98,South,172,0.0,-999.0,52,-99.99,,,0.00,weatherlink.com 1.10,2013-04-05 11:35:00,
2013-04-05 05:50:00,30.9,16.0,29.98,South,172,0.0,-999.0,55,-99.99,,,0.00,weatherlink.com 1.10,2013-04-05 11:50:00,
2013-04-05 06:05:00,30.0,15.0,30.00,South,172,0.0,-999.0,54,-99.99,,,0.00,weatherlink.com 1.10,2013-04-05 12:05:00,
2013-04-05 06:20:00,29.8,15.0,30.01,South,172,0.0,-999.0,54,-99.99,,,0.00,weatherlink.com 1.10,2013-04-05 12:20:00,
2013-04-05 06:35:00,29.8,16.0,30.00,South,172,0.0,-999.0,56,-99.99,,,0.00,weatherlink.com 1.10,2013-04-05 12:35:00,
2013-04-05 06:50:00,30.1,16.0,30.00,South,172,0.0,-999.0,55,-99.99,,,0.00,weatherlink.com 1.10,2013-04-05 12:50:00,
2013-04-05 07:05:00,29.7,16.0,30.00,South,172,0.0,-999.0,56,-99.99,,,0.00,weatherlink.com 1.10,2013-04-05 13:05:00,
2013-04-05 07:20:00,30.3,15.0,30.04,South,172,0.0,-999.0,54,-99.99,,,0.00,weatherlink.com 1.10,2013-04-05 13:20:00,
2013-04-05 07:35:00,31.0,16.0,30.02,South,172,0.0,-999.0,53,-99.99,,,0.00,weatherlink.com 1.10,2013-04-05 13:35:00,
2013-04-05 07:50:00,31.6,16.0,30.02,South,172,0.0,-999.0,53,-99.99,,,0.00,weatherlink.com 1.10,2013-04-05 13:50:00,
2013-04-05 08:05:00,31.6,17.0,30.01,South,172,0.0,-999.0,54,-99.99,,,0.00,weatherlink.com 1.10,2013-04-05 14:05:00,
2013-04-05 08:20:00,33.4,18.0,30.01,South,172,0.0,-999.0,54,-99.99,,,0.00,weatherlink.com 1.10,2013-04-05 14:20:00,
2013-04-05 08:35:00,34.9,18.0,29.98,South,172,0.0,-999.0,50,-99.99,,,0.00,weatherlink.com 1.10,2013-04-05 14:35:00,
2013-04-05 08:50:00,37.0,18.0,29.95,South,172,0.0,-999.0,47,-99.99,,,0.00,weatherlink.com 1.10,2013-04-05 14:50:00,
2013-04-05 09:05:00,40.1,19.0,29.91,South,172,0.0,-999.0,42,-99.99,,,0.00,weatherlink.com 1.10,2013-04-05 15:05:00,
2013-04-05 09:20:00,42.9,17.0,29.91,NE,50,0.0,-999.0,36,-99.99,,,0.00,weatherlink.com 1.10,2013-04-05 15:20:00,
2013-04-05 09:35:00,46.7,11.0,29.89,WSW,238,13.0,-999.0,23,-99.99,,,0.00,weatherlink.com 1.10,2013-04-05 15:35:00,
2013-04-05 11:06:00,53.5,9.0,29.83,SW,235,10.0,-999.0,17,-99.99,,,0.00,weatherlink.com 1.10,2013-04-05 17:06:00,
2013-04-05 11:21:00,53.3,11.0,29.84,South,175,3.0,-999.0,18,-99.99,,,0.00,weatherlink.com 1.10,2013-04-05 17:21:00,
2013-04-05 11:51:00,53.5,13.0,29.81,SSW,200,7.0,-999.0,20,-99.99,,,0.00,weatherlink.com 1.10,2013-04-05 17:51:00,
2013-04-05 12:06:00,54.1,16.0,29.80,South,184,3.0,-999.0,22,-99.99,,,0.00,weatherlink.com 1.10,2013-04-05 18:06:00,
2013-04-05 12:21:00,55.4,17.0,29.81,SW,232,9.0,-999.0,22,-99.99,,,0.00,weatherlink.com 1.10,2013-04-05 18:21:00,
2013-04-05 12:51:00,55.3,16.0,29.81,SW,227,0.0,-999.0,21,-99.99,,,0.00,weatherlink.com 1.10,2013-04-05 18:51:00,
2013-04-05 13:06:00,55.9,15.0,29.78,SW,222,1.0,-999.0,20,-99.99,,,0.00,weatherlink.com 1.10,2013-04-05 19:06:00,
2013-04-05 13:36:00,56.2,15.0,29.80,SSW,201,3.0,-999.0,20,-99.99,,,0.00,weatherlink.com 1.10,2013-04-05 19:36:00,
2013-04-05 13:51:00,56.9,17.0,29.78,SW,232,9.0,-999.0,21,-99.99,,,0.00,weatherlink.com 1.10,2013-04-05 19:51:00,
2013-04-05 14:06:00,54.1,15.0,29.80,SSW,211,8.0,-999.0,21,-99.99,,,0.00,weatherlink.com 1.10,2013-04-05 20:06:00,
2013-04-05 14:21:00,52.0,19.0,29.85,SW,224,10.0,-999.0,27,-99.99,,,0.00,weatherlink.com 1.10,2013-04-05 20:21:00,
2013-04-05 14:36:00,52.9,19.0,29.83,SSW,213,7.0,-999.0,26,-99.99,,,0.00,weatherlink.com 1.10,2013-04-05 20:36:00,
2013-04-05 14:51:00,52.2,17.0,29.83,SW,214,11.0,-999.0,25,-99.99,,,0.00,weatherlink.com 1.10,2013-04-05 20:51:00,
2013-04-05 15:06:00,53.9,17.0,29.81,WSW,237,10.0,-999.0,23,-99.99,,,0.00,weatherlink.com 1.10,2013-04-05 21:06:00,
2013-04-05 15:21:00,53.5,17.0,29.81,SW,221,6.0,-999.0,24,-99.99,,,0.00,weatherlink.com 1.10,2013-04-05 21:21:00,
2013-04-05 15:36:00,55.3,18.0,29.80,SW,231,7.0,-999.0,23,-99.99,,,0.00,weatherlink.com 1.10,2013-04-05 21:36:00,
2013-04-05 15:51:00,55.0,18.0,29.77,WSW,255,6.0,-999.0,23,-99.99,,,0.00,weatherlink.com 1.10,2013-04-05 21:51:00,
2013-04-05 16:06:00,52.5,17.0,29.81,SW,228,10.0,-999.0,25,-99.99,,,0.00,weatherlink.com 1.10,2013-04-05 22:06:00,
2013-04-05 16:21:00,52.9,20.0,29.83,WSW,255,7.0,-999.0,28,-99.99,,,0.00,weatherlink.com 1.10,2013-04-05 22:21:00,
2013-04-05 16:37:00,53.8,19.0,29.83,WSW,241,5.0,-999.0,25,-99.99,,,0.00,weatherlink.com 1.10,2013-04-05 22:37:00,
2013-04-05 16:52:00,54.4,17.0,29.81,SW,225,9.0,-999.0,23,-99.99,,,0.00,weatherlink.com 1.10,2013-04-05 22:52:00,
2013-04-05 17:07:00,54.2,17.0,29.82,SSW,208,4.0,-999.0,23,-99.99,,,0.00,weatherlink.com 1.10,2013-04-05 23:07:00,
2013-04-05 17:22:00,54.5,17.0,29.80,SW,219,10.0,-999.0,23,-99.99,,,0.00,weatherlink.com 1.10,2013-04-05 23:22:00,
2013-04-05 17:37:00,52.8,16.0,29.82,West,278,14.0,-999.0,23,-99.99,,,0.00,weatherlink.com 1.10,2013-04-05 23:37:00,
2013-04-05 17:53:00,52.8,17.0,29.82,SW,234,6.0,-999.0,24,-99.99,,,0.00,weatherlink.com 1.10,2013-04-05 23:53:00,
2013-04-05 18:07:00,52.3,16.0,29.83,WSW,242,4.0,-999.0,24,-99.99,,,0.00,weatherlink.com 1.10,2013-04-06 00:07:00,
2013-04-05 18:23:00,52.8,16.0,29.81,WSW,244,12.0,-999.0,23,-99.99,,,0.00,weatherlink.com 1.10,2013-04-06 00:23:00,
2013-04-05 18:38:00,51.4,16.0,29.82,WSW,245,10.0,-999.0,24,-99.99,,,0.00,weatherlink.com 1.10,2013-04-06 00:38:00,
2013-04-05 18:53:00,51.3,16.0,29.85,SSW,207,5.0,-999.0,25,-99.99,,,0.00,weatherlink.com 1.10,2013-04-06 00:53:00,
2013-04-05 19:08:00,48.3,21.0,29.88,SW,234,9.0,-999.0,34,-99.99,,,0.00,weatherlink.com 1.10,2013-04-06 01:08:00,
2013-04-05 19:25:00,48.0,19.0,29.88,WSW,248,3.0,-999.0,31,-99.99,,,0.00,weatherlink.com 1.10,2013-04-06 01:25:00,
2013-04-05 19:40:00,47.6,18.0,29.88,WNW,284,1.0,-999.0,31,-99.99,,,0.00,weatherlink.com 1.10,2013-04-06 01:40:00,
2013-04-05 19:55:00,46.1,22.0,29.88,NNW,330,0.0,-999.0,39,-99.99,,,0.00,weatherlink.com 1.10,2013-04-06 01:55:00,
2013-04-05 20:10:00,44.5,21.0,29.89,North,5,2.0,-999.0,40,-99.99,,,0.00,weatherlink.com 1.10,2013-04-06 02:10:00,
2013-04-05 20:25:00,43.5,22.0,29.82,NE,51,0.0,-999.0,42,-99.99,,,0.00,weatherlink.com 1.10,2013-04-06 02:25:00,
2013-04-05 20:40:00,42.9,21.0,29.84,NE,51,1.0,-999.0,42,-99.99,,,0.00,weatherlink.com 1.10,2013-04-06 02:40:00,
2013-04-05 20:55:00,42.2,21.0,29.85,NE,51,0.0,-999.0,43,-99.99,,,0.00,weatherlink.com 1.10,2013-04-06 02:55:00,
2013-04-05 21:11:00,42.3,21.0,29.87,NE,51,0.0,-999.0,42,-99.99,,,0.00,weatherlink.com 1.10,2013-04-06 03:11:00,
2013-04-05 21:25:00,42.1,21.0,29.75,NE,51,0.0,-999.0,43,-99.99,,,0.00,weatherlink.com 1.10,2013-04-06 03:25:00,
2013-04-05 21:41:00,41.9,21.0,29.77,NE,51,0.0,-999.0,43,-99.99,,,0.00,weatherlink.com 1.10,2013-04-06 03:41:00,
2013-04-05 22:11:00,40.5,22.0,29.78,WSW,238,0.0,-999.0,48,-99.99,,,0.00,weatherlink.com 1.10,2013-04-06 04:11:00,
2013-04-05 22:27:00,42.9,24.0,29.78,West,278,9.0,-999.0,48,-99.99,,,0.00,weatherlink.com 1.10,2013-04-06 04:27:00,
2013-04-05 22:42:00,42.2,23.0,29.74,WSW,244,0.0,-999.0,47,-99.99,,,0.00,weatherlink.com 1.10,2013-04-06 04:42:00,
2013-04-05 22:57:00,41.1,24.0,29.75,ENE,67,0.0,-999.0,50,-99.99,,,0.00,weatherlink.com 1.10,2013-04-06 04:57:00,
2013-04-05 23:12:00,41.6,23.0,29.75,East,101,0.0,-999.0,48,-99.99,,,0.00,weatherlink.com 1.10,2013-04-06 05:12:00,
2013-04-05 23:28:00,38.5,22.0,29.73,ESE,103,0.0,-999.0,51,-99.99,,,0.00,weatherlink.com 1.10,2013-04-06 05:28:00,
2013-04-05 23:43:00,37.2,22.0,29.77,ESE,103,0.0,-999.0,54,-99.99,,,0.00,weatherlink.com 1.10,2013-04-06 05:43:00,
2013-04-05 23:57:00,36.5,22.0,29.79,ESE,103,0.0,-999.0,57,-99.99,,,0.00,weatherlink.com 1.10,2013-04-06 05:57:00,